This is the latest recevied weather packets stored in our database for station/object K4KMJ. If no packets are shown the sender has not sent any weather packets the latest 10 day(s).
| Time | Temp. | Humidity | Pressure | Rain* | Wind** | Luminosity | Snow |
|---|---|---|---|---|---|---|---|
| 1778068916 | 20° C | 99% | 1018.8 hPa | 0 mm | - | 109 W/m² | - |
| 1778068615 | 19.44° C | 99% | 1018.7 hPa | 0 mm | - | 117 W/m² | - |
| 1778068312 | 18.89° C | 99% | 1018.7 hPa | 0 mm | - | 112 W/m² | - |
| 1778068009 | 18.89° C | 99% | 1018.5 hPa | 0 mm | - | 52 W/m² | - |
| 1778067707 | 17.78° C | 99% | 1018.5 hPa | 0 mm | - | 90 W/m² | - |
| 1778067406 | 17.22° C | 99% | 1018.7 hPa | 0 mm | - | 84 W/m² | - |
| 1778067102 | 17.22° C | 99% | 1018.4 hPa | 0 mm | - | 72 W/m² | - |
| 1778066798 | 16.67° C | 99% | 1018.7 hPa | 0 mm | - | 57 W/m² | - |
| 1778066496 | 16.67° C | 99% | 1018.3 hPa | 0 mm | - | 50 W/m² | - |
| 1778066194 | 16.11° C | 99% | 1018.6 hPa | 0 mm | - | 39 W/m² | - |
| 1778065891 | 15.56° C | 99% | 1018.2 hPa | 0 mm | - | 29 W/m² | - |
| 1778065588 | 15.56° C | 99% | 1018.2 hPa | 0 mm | - | 20 W/m² | - |
| 1778065286 | 15.56° C | 99% | 1018 hPa | 0 mm | - | 16 W/m² | - |
| 1778064982 | 15.56° C | 99% | 1018.2 hPa | 0 mm | - | 13 W/m² | - |
| 1778064679 | 15.56° C | 99% | 1018.2 hPa | 0 mm | - | 9 W/m² | - |
| 1778064378 | 15.56° C | 99% | 1018.1 hPa | 0 mm | - | 6 W/m² | - |
| 1778064074 | 15.56° C | 99% | 1018.1 hPa | 0 mm | - | 3 W/m² | - |
| 1778063772 | 15.56° C | 99% | 1017.9 hPa | 0 mm | - | 1 W/m² | - |
| 1778063469 | 15.56° C | 99% | 1018 hPa | 0 mm | - | 1 W/m² | - |
| 1778063167 | 15.56° C | 99% | 1017.9 hPa | 0 mm | - | 0 W/m² | - |
| 1778062864 | 15.56° C | 99% | 1017.9 hPa | 0 mm | - | 0 W/m² | - |
| 1778062561 | 15.56° C | 99% | 1017.7 hPa | 0 mm | - | 0 W/m² | - |
| 1778062257 | 15.56° C | 99% | 1017.9 hPa | 0 mm | - | 0 W/m² | - |
| 1778061956 | 15.56° C | 99% | 1018.1 hPa | 0 mm | - | 0 W/m² | - |
| 1778061653 | 15.56° C | 99% | 1018.2 hPa | 0 mm | - | 0 W/m² | - |
* Rain latest hour (hover to see other rain measurements)
** Current wind speed in m/s (hover to see current wind gust speed)